Le nostre stazioni meteo in Italia

Pubblicità
Il mio iltempo24.it
Monte Scuro, Italia (16344): Temperatura & dewpoint: 20.08.2019 12:00:00 - 26.08.2019 12:00:00 (CEST)Monte Scuro, Italia (16344): velocità del vento: 20.08.2019 12:00:00 - 26.08.2019 12:00:00 (CEST)Monte Scuro, Italia (16344): direzione del vento: 20.08.2019 12:00:00 - 26.08.2019 12:00:00 (CEST)Monte Scuro, Italia (16344): visibility: 20.08.2019 12:00:00 - 26.08.2019 12:00:00 (CEST)Monte Scuro, Italia (16344): ore di luce: 20.08.2019 12:00:00 - 26.08.2019 12:00:00 (CEST)
Data & Tempo tt [°C] td [°C] ff [km/h] ff [kn] dd vv [km] sd [min]
26.08.2019 12:00:00 20,0 17,2 11 6 ONO 20 60
26.08.2019 11:00:00 20,0 12,0 9 5 NO 20 60
26.08.2019 10:00:00 20,0 12,0 15 8 O 25 60
26.08.2019 09:00:00 19,4 12,2 0 0 N 25 60
26.08.2019 08:00:00 18,8 14,3 0 0 N 20 60
26.08.2019 07:00:00 17,0 12,5 0 0 N 20 -
26.08.2019 06:00:00 16,0 13,3 0 0 N 10 -
26.08.2019 05:00:00 16,0 14,7 2 1 O 10 -
26.08.2019 04:00:00 16,0 14,2 11 6 OSO 10 -
26.08.2019 03:00:00 16,0 14,0 8 4 SSO 10 -
26.08.2019 02:00:00 16,6 15,5 11 6 SSO 10 -
26.08.2019 01:00:00 17,0 17,0 11 6 SO 10 -
26.08.2019 00:00:00 17,0 16,7 11 6 SO 10 -
25.08.2019 23:00:00 17,0 15,2 9 5 O 10 -
25.08.2019 22:00:00 17,0 15,9 13 7 OSO 10 -
25.08.2019 21:00:00 17,0 16,7 11 6 OSO 10 -
25.08.2019 20:00:00 17,4 17,4 13 7 O 10 -
25.08.2019 19:00:00 18,0 17,5 11 6 O 10 48
25.08.2019 18:00:00 17,0 17,0 15 8 ONO 10 0
25.08.2019 17:00:00 16,0 12,7 22 12 NNE 10 0
25.08.2019 16:00:00 17,0 15,4 18 10 NNE 10 0
25.08.2019 15:00:00 16,0 12,0 9 5 OSO 10 24
25.08.2019 14:00:00 16,0 11,4 11 6 O 20 60
25.08.2019 13:00:00 16,0 11,0 9 5 O 20 60
25.08.2019 12:00:00 15,4 11,2 11 6 O 20 60
25.08.2019 11:00:00 20,0 15,4 11 6 OSO 20 60
25.08.2019 10:00:00 19,4 14,0 0 0 N 20 60
25.08.2019 09:00:00 19,0 13,0 0 0 N 20 60
25.08.2019 08:00:00 18,6 13,0 0 0 N 20 60
25.08.2019 07:00:00 17,0 12,1 0 0 N 10 -
25.08.2019 06:00:00 16,8 12,4 0 0 N 10 -
25.08.2019 05:00:00 16,8 12,4 0 0 N 10 -
25.08.2019 04:00:00 16,8 11,3 0 0 N 10 -
25.08.2019 03:00:00 16,8 11,3 0 0 N 10 -
25.08.2019 02:00:00 16,8 11,3 0 0 N 10 -
25.08.2019 01:00:00 16,8 12,4 0 0 N 10 -
25.08.2019 00:00:00 17,0 11,5 0 0 N 10 -
24.08.2019 23:00:00 16,8 11,3 0 0 N 10 -
24.08.2019 22:00:00 16,8 13,3 0 0 N 10 -
24.08.2019 21:00:00 17,0 14,5 0 0 N 10 -
24.08.2019 20:00:00 17,4 13,9 0 0 N 10 0
24.08.2019 19:00:00 17,6 17,6 0 0 N 10 60
24.08.2019 18:00:00 18,0 15,4 0 0 N 10 12
24.08.2019 17:00:00 16,2 13,7 0 0 N 10 0
24.08.2019 16:00:00 18,0 16,3 0 0 N 10 0
24.08.2019 15:00:00 17,8 15,3 0 0 N 10 12
24.08.2019 14:00:00 19,8 18,1 0 0 N 10 18
24.08.2019 13:00:00 19,4 18,6 0 0 N 10 24
24.08.2019 12:00:00 20,2 16,2 0 0 N 20 48
24.08.2019 11:00:00 20,0 14,4 0 0 N 10 42
24.08.2019 10:00:00 20,0 11,5 5 3 O 20 60
24.08.2019 09:00:00 20,0 11,2 8 4 E 20 60
24.08.2019 08:00:00 19,0 11,3 4 2 ENE 20 48
24.08.2019 07:00:00 17,0 10,1 5 3 ENE 20 -
24.08.2019 06:00:00 16,2 10,3 0 0 N 10 -
24.08.2019 05:00:00 16,2 11,2 8 4 ENE 10 -
24.08.2019 04:00:00 16,2 11,2 4 2 ENE 10 -
24.08.2019 03:00:00 16,2 10,3 5 3 ENE 10 -
24.08.2019 02:00:00 16,2 9,9 5 3 O 10 -
24.08.2019 01:00:00 15,0 10,6 9 5 ENE 10 -
24.08.2019 00:00:00 15,0 12,9 11 6 ENE 10 -
23.08.2019 23:00:00 15,6 13,1 11 6 ENE 10 -
23.08.2019 22:00:00 16,0 15,7 11 6 ENE 10 -
23.08.2019 21:00:00 17,0 16,7 9 5 ENE 10 -
23.08.2019 20:00:00 17,2 16,9 8 4 ENE 15 -
23.08.2019 19:00:00 17,6 17,3 5 3 ENE 15 0
23.08.2019 18:00:00 18,8 18,5 4 2 NNE 15 0
23.08.2019 17:00:00 18,6 18,3 5 3 O 15 0
23.08.2019 16:00:00 18,0 17,7 4 2 O 15 0
23.08.2019 15:00:00 18,8 18,5 4 2 O 15 0
23.08.2019 14:00:00 19,0 18,7 8 4 O 20 12
23.08.2019 13:00:00 19,0 18,0 8 4 ENE 20 0
23.08.2019 12:00:00 19,8 17,2 9 5 ENE 20 24
23.08.2019 11:00:00 20,2 14,8 15 8 ENE 20 60
23.08.2019 10:00:00 20,2 15,0 16 9 E 20 60
23.08.2019 09:00:00 18,8 13,2 22 12 E 20 60
23.08.2019 08:00:00 18,0 12,0 15 8 ENE 15 24
23.08.2019 07:00:00 15,8 13,5 9 5 E 15 -
23.08.2019 06:00:00 15,8 13,7 9 5 SO 15 -
23.08.2019 05:00:00 16,4 10,3 13 7 S 15 -
23.08.2019 04:00:00 16,4 10,3 8 4 OSO 15 -
23.08.2019 03:00:00 16,2 10,3 5 3 O 15 -
23.08.2019 02:00:00 16,0 11,6 5 3 NNE 15 -
23.08.2019 01:00:00 16,0 15,5 4 2 NNE 15 -
23.08.2019 00:00:00 16,2 14,0 5 3 NNE 15 -
22.08.2019 23:00:00 16,4 15,1 0 0 N 15 -
22.08.2019 22:00:00 17,4 15,4 0 0 N 15 -
22.08.2019 21:00:00 17,6 17,3 8 4 NNE 15 -
22.08.2019 20:00:00 18,4 17,6 9 5 NNE 15 -
22.08.2019 19:00:00 19,6 19,3 5 3 ONO 20 60
22.08.2019 18:00:00 20,4 16,6 11 6 ONO 20 48
22.08.2019 17:00:00 21,0 16,8 5 3 NE 20 24
22.08.2019 16:00:00 20,4 16,4 11 6 NNE 20 30
22.08.2019 15:00:00 20,8 16,4 9 5 ONO 20 48
22.08.2019 14:00:00 20,8 16,8 11 6 ONO 20 30
22.08.2019 13:00:00 20,2 18,2 11 6 ONO 20 60
22.08.2019 12:00:00 21,0 16,8 4 2 ONO 20 60
22.08.2019 11:00:00 21,2 15,5 4 2 ENE 20 60
22.08.2019 10:00:00 21,0 14,2 8 4 NNE 20 60
22.08.2019 09:00:00 20,0 12,3 8 4 NNE 20 60
22.08.2019 08:00:00 19,0 16,0 13 7 NNE 20 60
22.08.2019 07:00:00 22,0 18,8 8 4 NNE 20 -
22.08.2019 06:00:00 16,6 13,5 9 5 NNE 10 -
22.08.2019 05:00:00 16,8 13,3 5 3 NNE 10 -
22.08.2019 04:00:00 16,8 13,5 0 0 N 10 -
22.08.2019 03:00:00 17,0 12,5 9 5 NE 10 -
22.08.2019 02:00:00 17,0 10,4 15 8 NE 10 -
22.08.2019 01:00:00 17,0 11,5 11 6 NE 10 -
22.08.2019 00:00:00 17,4 15,2 13 7 NE 10 -
21.08.2019 23:00:00 17,6 16,1 15 8 NE 10 -
21.08.2019 22:00:00 18,4 15,1 11 6 NE 10 -
21.08.2019 21:00:00 18,4 16,7 9 5 O 10 -
21.08.2019 20:00:00 18,0 16,5 11 6 O 10 -
21.08.2019 19:00:00 20,0 17,2 11 6 O 20 60
21.08.2019 18:00:00 21,0 16,4 13 7 O 20 30
21.08.2019 17:00:00 21,4 15,7 15 8 O 10 42
21.08.2019 16:00:00 21,8 16,1 13 7 OSO 10 42
21.08.2019 15:00:00 22,0 16,3 13 7 O 10 48
21.08.2019 14:00:00 22,0 14,4 15 8 O 20 60
21.08.2019 13:00:00 22,0 14,4 11 6 O 20 60
21.08.2019 12:00:00 22,0 17,4 11 6 O 20 60
21.08.2019 11:00:00 20,4 16,6 5 3 O 25 60
21.08.2019 10:00:00 20,8 16,2 0 0 N 20 60
21.08.2019 09:00:00 20,8 12,8 0 0 N 20 60
21.08.2019 08:00:00 20,4 15,8 0 0 N 20 60
21.08.2019 07:00:00 18,0 16,7 0 0 N 10 -
21.08.2019 06:00:00 16,8 16,5 0 0 N 10 -
21.08.2019 05:00:00 17,0 16,7 0 0 N 10 -
21.08.2019 04:00:00 17,2 15,5 0 0 N 10 -
21.08.2019 03:00:00 17,2 13,7 0 0 N 10 -
21.08.2019 02:00:00 17,0 1,4 0 0 N 10 -
21.08.2019 01:00:00 16,8 10,2 0 0 N 10 -
21.08.2019 00:00:00 16,8 12,4 0 0 N 10 -
20.08.2019 23:00:00 16,8 16,5 0 0 N 10 -
20.08.2019 22:00:00 17,2 16,9 0 0 N 10 -
20.08.2019 21:00:00 17,8 16,1 0 0 N 10 0
20.08.2019 20:00:00 18,0 17,2 0 0 N 10 60
20.08.2019 19:00:00 19,6 17,6 0 0 N 10 60
20.08.2019 18:00:00 20,0 15,4 0 0 N 10 60
20.08.2019 17:00:00 21,6 17,0 0 0 N 20 60
20.08.2019 16:00:00 21,4 13,8 18 10 NNE 20 60
20.08.2019 15:00:00 21,2 14,4 0 0 N 20 60
20.08.2019 14:00:00 21,2 13,4 18 10 NNE 20 60
20.08.2019 13:00:00 21,0 13,9 18 10 NNE 20 60
20.08.2019 12:00:00 20,0 14,4 18 10 NNE 20 60

tt = Temperatura
td = dewpoint
ff = velocità del vento
dd = direzione del vento
vv = visibility
sd = ore di luce

Stazioni seguenti

WeatherPro
AMSI
MeteoEarth